Qianfan Jigui 03-10

operational
NORAD ID: 62247 Int'l Des: 2024-232 Owner: YUANX Country: CN Constellation: qianfan
LEOCIRCULARPOLAR

Über Qianfan Jigui 03-10

Beschreibung wird geladen...

Live-Position

3D-Globus wird geladen...

Nächste Überflüge

Höhenverlauf

Altitude vs Time

uPlot chart will show altitude changes over time

Zweizeiliger Elementsatz

1 62247U 24232L 26063.13359683 .00000078 00000-0 10227-3 0 9999
2 62247 89.0056 33.0719 0013540 331.6558 28.3855 13.51003122110201
Epoch: 4. März 2026 • Age: 8 hours

Aktueller Status

Höhe 1092.3 km
Geschwindigkeit 7.31 km/s
Subsatellitenpunkt -62.03°S, 66.52°W
Startdatum 5. Dez. 2024
Alter 1.2 years
Typ internet

Technische Details

Klassifizierung Payload
Masse 267.00 kg
Trockenmasse 267.00 kg
Gesamtmasse 267.00 kg
Länge 0.30 m
Durchmesser 3.00 m
Spannweite 10.00 m
Form Box+pan
Hersteller SECM
Bus-Typ Qianfan
Phasenstatus In Orbit
Besitzer/Staat YUANX/CN

Große Konstellationen

Loading constellations...